sat.trackr.live / text

‹ back to catalog

STARLINK-1347

NORAD 45586 · 2020-025BH

PAYLOAD ACTIVE UNKNOWN

§ Identity

Operator
Country
US
Launch date
2020-04-22
Launch site
AFETR
Launch vehicle
Mass (kg)
RCS (m²)

Purposes: comms

External: N2YO · Heavens-Above · Gunter

§ Orbital elements

Epoch: 2026-09-20T01:31:56.703072Z

Period
90.97 min
Inclination
53.0331°
Eccentricity
0.0004756
Mean motion
15.82983760 rev/d
Perigee alt
318.8 km
Apogee alt
325.2 km
Semi-major
6,700.1 km
B*
4.3167e-4
RAAN
149.3361°
Arg perigee
126.6430°
Mean anomaly
233.5029°
Rev number
35,668

§ Raw data

STARLINK-13471 45586U 20025BH  26263.06385073  .00094380  00000+0  43167-3 0  99952 45586  53.0331 149.3361 0004756 126.6430 233.5029 15.82983760356687

JSON: /api/v1/satellites/45586 · /tle

For live sub-satellite position, see the globe view (requires WebGL).

§ Visibility from observer

Set your observer location to see the next 7 days of passes ≥ 10°. The values pass through the URL so the page stays shareable.

No JS? Fill the form by hand. The geolocation button needs JavaScript.